Regional Weather Roundup
Issued by NWS

Home | Current Version | Previous Version | Graphics & Text | Print | Product List | Glossary On
Versions: 1 2 3 4 5 6 7 8 9 10 11 12 13 14 15 16 17 18 19 20 21 22 23 24 25 26 27 28 29 30 31 32 33 34 35 36 37 38 39 40 41 42 43 44 45 46 47 48 49 50
000
ASUS43 KIND 300309
RWRIN

WEATHER ROUNDUP FOR INDIANA
NATIONAL WEATHER SERVICE INDIANAPOLIS IN
1100 PM EDT TUE JUL 29 2014

NOTE: "FAIR" INDICATES FEW OR NO CLOUDS BELOW 12,000 FEET WITH NO
SIGNIFICANT WEATHER AND/OR OBSTRUCTIONS TO VISIBILITY.

* - STATION DOES NOT REPORT WEATHER SUCH AS PRECIPITATION OR FOG.

+ - STATION NOT QUALITY CONTROLLED BY THE NATIONAL WEATHER SERVICE.
    USE DATA WITH CAUTION...ESPECIALLY DEWPOINT AND RELATIVE
    HUMIDITY OBSERVATIONS.

INZ001>003-010>013-019-020-300400-
NORTHWEST INDIANA

CITY           SKY/WX    TMP DP  RH WIND       PRES   REMARKS
GARY /AIRPORT/ MOCLDY    69  58  68 SW3       30.02S
KNOX *+        PTCLDY    62  56  83 SW5       30.01S
LA PORTE +     PTCLDY    64  57  79 W5        30.02S
MICHIGAN CITY+ PTCLDY    63  55  77 S3        30.01S
MONTICELLO +   CLEAR     60  59  96 CALM      30.03R
RENSSELAER +   CLEAR     59  59 100 SW3       30.03S
VALPARAISO     LGT RAIN  63  60  90 W3        30.02S

$$

LMZ046-743>745-300400-
SOUTHERN LAKE MICHIGAN

STATION/POSITION TIME  TEMP WIND        PRES
                       AIR  DIR/SP/G
                 (UTC) (F)  (DEG/KT/KT) (MB)
MICHIGAN CITY    0300   68  210/ 10/ 13   N/A

$$

INZ004-005-014>016-021>024-300400-
NORTH CENTRAL INDIANA

CITY           SKY/WX    TMP DP  RH WIND       PRES   REMARKS
GOSHEN         CLEAR     60  54  80 CALM      30.01S
LOGANSPORT +   PTCLDY    59  57  94 SW6       30.04R
PERU/GRISSOM   PTCLDY    59  59 100 SW6       30.03S
ROCHESTER +    CLEAR     64  59  82 SW6       30.03S
SOUTH BEND     PTCLDY    63  55  75 CALM      30.02R
WARSAW +       CLEAR     59  55  88 CALM      30.02S

$$

INZ006>009-017-018-025>027-300400-
NORTHEAST INDIANA

CITY           SKY/WX    TMP DP  RH WIND       PRES   REMARKS
ANGOLA *+      CLEAR     55  46  71 CALM      30.01S
AUBURN +       CLEAR     59  55  88 CALM      30.02S
FORT WAYNE     PTCLDY    61  58  90 SW6       30.02S
HUNTINGTON +   CLEAR     61  59  92 CALM      30.02S

$$

INZ028-029-035-036-043>045-051>053-300400-
WEST CENTRAL INDIANA

CITY           SKY/WX    TMP DP  RH WIND       PRES   REMARKS
GREENCASTLE +  PTCLDY    61  57  88 CALM      30.06S
LAFAYETTE      RAIN      59  59 100 W5        30.04R FOG
TERRE HAUTE    CLEAR     63  56  78 W5        30.06S

$$

INZ030>032-037>040-046>048-054>057-064-065-300400-
CENTRAL INDIANA

CITY           SKY/WX    TMP DP  RH WIND       PRES   REMARKS
CP ATTERBURY + PTCLDY    61  59  94 CALM      30.06F
FRANKFORT +    PTCLDY   N/A N/A N/A CALM      30.06
GREENWOOD *+   MOCLDY    63  63 100 E5        30.07
INDIANAPOLIS   CLOUDY    62  60  93 NE5       30.05R
-EAGLE CREEK   LGT RAIN  63  61  93 CALM      30.06R
KOKOMO *+      PTCLDY    59  55  88 SW3       30.04S
MARION +       PTCLDY    58  56  94 CALM      30.04S
MT COMFORT *+  MOCLDY    61 N/A N/A W5        30.06F
SHELBYVILLE    MOCLDY    63  59  87 NW7       30.06R
ZIONSVILLE +   PTCLDY    62  58  87 SW5       30.06F

$$

INZ033-034-041-042-049-050-058-059-300400-
EAST CENTRAL INDIANA

CITY           SKY/WX    TMP DP  RH WIND       PRES   REMARKS
MUNCIE         CLEAR     62  57  83 W7        30.05R

$$

INZ060-061-067>069-081>083-085>088-300400-
SOUTHWEST INDIANA

CITY           SKY/WX    TMP DP  RH WIND       PRES   REMARKS
EVANSVILLE     CLEAR     67  58  72 CALM      30.08R
WASHINGTON +   CLEAR     59  59  99 CALM      30.07R

$$

INZ062-063-066-070>080-084-089>092-300400-
SOUTH CENTRAL AND SOUTHEAST INDIANA

CITY           SKY/WX    TMP DP  RH WIND       PRES   REMARKS
BLOOMINGTON    CLEAR     62  59  90 CALM      30.07R
NORTH VERNON + PTCLDY    64  64 100 CALM      30.08

$$




USA.gov is the U.S. government's official web portal to all federal, state and local government web resources and services.